KE8DDT-7 Weather Reports


time (UTC)temp
C
wind
direction
speed
KPH
gust
KPH
rain 1hr
cm
rain 24hr
cm
rain mn
cm
humidity
%
barometer
mb
20260509002858 15 0 0.0 0.0 0.00 0.00 0.00 43 998.6
20260509002358 16 0 0.0 0.0 0.00 0.00 0.00 43 998.6
20260509001858 16 0 0.0 0.0 0.00 0.00 0.00 43 998.6
20260509001358 16 0 0.0 0.0 0.00 0.00 0.00 43 998.6
20260509000858 16 0 0.0 0.0 0.00 0.00 0.00 43 998.5
20260509000358 16 0 0.0 0.0 0.00 0.00 0.00 43 998.6
20260508235858 16 0 0.0 0.0 0.00 0.00 0.00 43 998.6
20260508235358 16 0 0.0 0.0 0.00 0.00 0.00 44 998.6
20260508234858 16 0 0.0 0.0 0.00 0.00 0.00 42 998.6
20260508234358 16 0 0.0 0.0 0.00 0.00 0.00 42 998.6
20260508233858 17 0 0.0 0.0 0.00 0.00 0.00 41 998.5
20260508233358 17 0 0.0 0.0 0.00 0.00 0.00 39 998.6
20260508232358 17 0 0.0 3.2 0.00 0.00 0.00 38 998.6
20260508231858 17 0 0.0 3.2 0.00 0.00 0.00 36 998.6
20260508231358 17 0 0.0 3.2 0.00 0.00 0.00 36 998.6
20260508230858 17 0 0.0 3.2 0.00 0.00 0.00 38 998.6
20260508230358 17 0 0.0 1.6 0.00 0.00 0.00 37 998.6
20260508225859 17 0 0.0 0.0 0.00 0.00 0.00 37 998.6
20260508225358 17 0 0.0 0.0 0.00 0.00 0.00 36 998.6
20260508224858 17 0 0.0 0.0 0.00 0.00 0.00 37 998.6
20260508224358 17 0 0.0 0.0 0.00 0.00 0.00 37 998.6
20260508223858 17 0 0.0 0.0 0.00 0.00 0.00 37 998.6
20260508223358 17 0 0.0 0.0 0.00 0.00 0.00 37 998.7
20260508222739 17 0 0.0 3.2 0.00 0.00 0.00 36 998.6
20260508222239 17 0 0.0 1.6 0.00 0.00 0.00 36 998.6
20260508221739 17 0 0.0 1.6 0.00 0.00 0.00 38 998.7
20260508221239 17 0 0.0 3.2 0.00 0.00 0.00 38 998.8
20260508220739 17 0 0.0 4.8 0.00 0.00 0.00 38 998.8
20260508220239 17 0 0.0 4.8 0.00 0.00 0.00 38 998.8
20260508215739 17 0 0.0 3.2 0.00 0.00 0.00 39 998.8
20260508215239 17 0 0.0 3.2 0.00 0.00 0.00 38 998.8
20260508214739 17 0 0.0 1.6 0.00 0.00 0.00 39 998.8
20260508214239 17 0 0.0 1.6 0.00 0.00 0.00 40 998.9
20260508213739 17 0 0.0 0.0 0.00 0.00 0.00 40 998.9
20260508213239 17 0 0.0 4.8 0.00 0.00 0.00 42 999.0
20260508212739 17 0 0.0 4.8 0.00 0.00 0.00 40 999.0
20260508211739 17 0 0.0 3.2 0.00 0.00 0.00 40 999.1
20260508211239 17 0 0.0 1.6 0.00 0.00 0.00 39 999.0
20260508210739 17 0 0.0 3.2 0.00 0.00 0.00 40 999.0
20260508210239 17 0 0.0 3.2 0.00 0.00 0.00 39 999.0
20260508205739 16 0 0.0 0.0 0.00 0.00 0.00 40 999.1
20260508205230 16 0 0.0 3.2 0.00 0.00 0.00 39 999.1
20260508204730 17 0 0.0 3.2 0.00 0.00 0.00 39 999.3
20260508204230 17 0 0.0 3.2 0.00 0.00 0.00 39 999.3
20260508203730 17 0 0.0 1.6 0.00 0.00 0.00 39 999.3
20260508203230 17 0 0.0 1.6 0.00 0.00 0.00 39 999.4
20260508202730 17 0 0.0 1.6 0.00 0.00 0.00 38 999.5
20260508202230 17 0 0.0 1.6 0.00 0.00 0.00 38 999.4
20260508201730 17 0 0.0 3.2 0.00 0.00 0.00 36 999.5
20260508201230 17 0 0.0 3.2 0.00 0.00 0.00 36 999.6
20260508200730 17 0 0.0 3.2 0.00 0.00 0.00 37 999.7
20260508200230 17 0 0.0 1.6 0.00 0.00 0.00 37 1000.0
20260508195730 17 0 0.0 3.2 0.00 0.00 0.00 38 1000.1
20260508195230 17 0 0.0 4.8 0.00 0.00 0.00 37 1000.1
20260508194730 17 0 0.0 4.8 0.00 0.00 0.00 36 1000.1
20260508194230 17 0 0.0 3.2 0.00 0.00 0.00 35 1000.2
20260508193730 17 0 0.0 3.2 0.00 0.00 0.00 36 1000.4
20260508193230 17 0 0.0 3.2 0.00 0.00 0.00 39 1000.2
20260508192730 17 0 0.0 1.6 0.00 0.00 0.00 38 1000.3
20260508192230 17 0 0.0 3.2 0.00 0.00 0.00 37 1000.4
20260508191730 17 0 0.0 4.8 0.00 0.00 0.00 37 1000.5
20260508191230 17 0 0.0 4.8 0.00 0.00 0.00 37 1000.7
20260508190730 17 0 0.0 0.0 0.00 0.00 0.00 38 1000.7
20260508190230 17 0 0.0 0.0 0.00 0.00 0.00 37 1000.7
20260508184732 17 0 0.0 4.8 0.00 0.00 0.00 41 1001.0
20260508184232 17 0 0.0 4.8 0.00 0.00 0.00 39 1001.0
20260508183732 16 0 0.0 0.0 0.00 0.00 0.00 43 1001.0
20260508183232 16 0 0.0 0.0 0.00 0.00 0.00 42 1001.1
20260508182355 15 0 0.0 3.2 0.00 0.00 0.00 43 1001.4
20260508181855 15 0 0.0 3.2 0.00 0.00 0.00 42 1001.3
20260508181355 15 0 0.0 6.4 0.00 0.00 0.00 41 1001.4
20260508180855 16 0 0.0 6.4 0.00 0.00 0.00 40 1001.3
20260508180356 16 0 0.0 4.8 0.00 0.00 0.00 40 1001.3
20260508175855 16 0 0.0 4.8 0.00 0.00 0.00 42 1001.4
20260508175355 15 0 0.0 8.0 0.00 0.00 0.00 41 1001.3
20260508174855 15 0 0.0 8.0 0.00 0.00 0.00 40 1001.5
20260508174355 16 0 0.0 1.6 0.00 0.00 0.00 42 1001.7
20260508173856 16 0 0.0 1.6 0.00 0.00 0.00 41 1001.8
20260508173355 15 0 0.0 0.0 0.00 0.00 0.00 42 1001.8
20260508172855 15 0 0.0 1.6 0.00 0.00 0.00 41 1001.9
20260508172355 15 0 0.0 1.6 0.00 0.00 0.00 41 1002.0
20260508171855 15 0 0.0 4.8 0.00 0.00 0.00 41 1002.2
20260508171355 15 0 0.0 4.8 0.00 0.00 0.00 39 1002.3
20260508170855 15 0 0.0 4.8 0.00 0.00 0.00 38 1002.3
20260508170358 16 0 0.0 4.8 0.00 0.00 0.00 37 1002.4
20260508165855 16 0 0.0 1.6 0.00 0.00 0.00 37 1002.4
20260508165355 15 0 0.0 3.2 0.00 0.00 0.00 39 1002.5
20260508164855 15 0 0.0 4.8 0.00 0.00 0.00 40 1002.7
20260508164355 15 0 0.0 4.8 0.00 0.00 0.00 39 1002.7
20260508163855 15 0 0.0 1.6 0.00 0.00 0.00 38 1002.8
20260508163355 15 0 0.0 1.6 0.00 0.00 0.00 42 1002.9
20260508162855 15 0 0.0 1.6 0.00 0.00 0.00 41 1002.8
20260508162355 15 0 0.0 6.4 0.00 0.00 0.00 42 1002.8
20260508161856 15 0 0.0 6.4 0.00 0.00 0.00 45 1002.9
20260508161355 14 0 0.0 3.2 0.00 0.00 0.00 45 1002.9
20260508160855 14 0 0.0 1.6 0.00 0.00 0.00 44 1003.0
20260508160355 14 0 0.0 1.6 0.00 0.00 0.00 46 1003.0
20260508155407 14 0 0.0 3.2 0.00 0.00 0.00 47 1003.2
20260508154855 13 0 0.0 1.6 0.00 0.00 0.00 48 1003.2
20260508154355 13 0 0.0 1.6 0.00 0.00 0.00 48 1003.2
20260508153855 13 0 0.0 1.6 0.00 0.00 0.00 48 1003.2
20260508153355 13 0 0.0 0.0 0.00 0.00 0.00 49 1003.2
20260508152855 13 0 0.0 0.0 0.00 0.00 0.00 49 1003.3
20260508152356 13 0 0.0 1.6 0.00 0.00 0.00 47 1003.5
20260508151855 13 0 0.0 1.6 0.00 0.00 0.00 52 1003.4
20260508151355 13 0 0.0 1.6 0.00 0.00 0.00 51 1003.4
20260508150855 13 0 0.0 1.6 0.00 0.00 0.00 51 1003.5
20260508150355 13 0 0.0 0.0 0.00 0.00 0.00 54 1003.5
20260508145355 12 0 0.0 1.6 0.00 0.00 0.00 55 1003.5
20260508144855 12 0 0.0 1.6 0.00 0.00 0.00 54 1003.6
20260508144355 12 0 0.0 1.6 0.00 0.00 0.00 57 1003.6
20260508143855 12 0 0.0 0.0 0.00 0.00 0.00 57 1003.6
20260508143355 12 0 0.0 0.0 0.00 0.00 0.00 57 1003.7
20260508142355 12 0 0.0 0.0 0.00 0.00 0.00 58 1003.8
20260508141855 12 0 0.0 0.0 0.00 0.00 0.00 58 1003.8
20260508141356 12 0 0.0 0.0 0.00 0.00 0.00 59 1003.8
20260508140855 12 0 0.0 0.0 0.00 0.00 0.00 61 1003.9
20260508140355 11 0 0.0 0.0 0.00 0.00 0.00 62 1003.9
20260508135855 11 0 0.0 0.0 0.00 0.00 0.00 62 1004.0
20260508135355 11 0 0.0 0.0 0.00 0.00 0.00 63 1004.0
20260508134855 11 0 0.0 0.0 0.00 0.00 0.00 64 1004.0
20260508134355 11 0 0.0 0.0 0.00 0.00 0.00 65 1004.0
20260508133855 10 0 0.0 0.0 0.00 0.00 0.00 66 1004.0
20260508133355 10 0 0.0 0.0 0.00 0.00 0.00 68 1004.1
20260508132855 10 0 0.0 0.0 0.00 0.00 0.00 67 1004.1
20260508132355 10 0 0.0 0.0 0.00 0.00 0.00 68 1004.1
20260508131856 10 0 0.0 0.0 0.00 0.00 0.00 69 1004.1
20260508131355 10 0 0.0 0.0 0.00 0.00 0.00 73 1004.2
20260508130855 9 0 0.0 0.0 0.00 0.00 0.00 75 1004.1
20260508130355 8 0 0.0 0.0 0.00 0.00 0.00 77 1004.1
20260508125855 8 0 0.0 0.0 0.00 0.00 0.00 79 1004.1
20260508125355 8 0 0.0 0.0 0.00 0.00 0.00 80 1004.1
20260508124855 7 0 0.0 0.0 0.00 0.00 0.00 80 1004.1
20260508124355 7 0 0.0 0.0 0.00 0.00 0.00 83 1004.1
20260508123855 7 0 0.0 0.0 0.00 0.00 0.00 84 1004.0
20260508123355 7 0 0.0 0.0 0.00 0.00 0.00 84 1004.0
20260508122855 6 0 0.0 0.0 0.00 0.00 0.00 85 1003.9
20260508122354 6 0 0.0 0.0 0.00 0.00 0.00 85 1003.8
20260508121855 6 0 0.0 0.0 0.00 0.00 0.00 86 1003.8
20260508121355 6 0 0.0 1.6 0.00 0.00 0.00 86 1003.8
20260508120855 5 0 0.0 1.6 0.00 0.00 0.00 86 1003.8
20260508120354 5 0 0.0 0.0 0.00 0.00 0.00 86 1003.7
20260508115855 5 0 0.0 0.0 0.00 0.00 0.00 86 1003.7
20260508115354 5 0 0.0 0.0 0.00 0.00 0.00 86 1003.6
20260508114855 5 0 0.0 0.0 0.00 0.00 0.00 86 1003.6
20260508114355 5 0 0.0 0.0 0.00 0.00 0.00 86 1003.6
20260508113510 5 0 0.0 0.0 0.00 0.00 0.00 85 1003.4
20260508113010 5 0 0.0 0.0 0.00 0.00 0.00 85 1003.4
20260508112511 5 0 0.0 0.0 0.00 0.00 0.00 85 1003.3
20260508112010 5 0 0.0 0.0 0.00 0.00 0.00 85 1003.3
20260508111510 5 0 0.0 0.0 0.00 0.00 0.00 85 1003.2
20260508111010 4 0 0.0 0.0 0.00 0.00 0.00 84 1003.1
20260508110510 4 0 0.0 0.0 0.00 0.00 0.00 84 1003.1
20260508110010 4 0 0.0 0.0 0.00 0.00 0.00 84 1003.0
20260508105511 4 0 0.0 0.0 0.00 0.00 0.00 84 1003.1
20260508105011 5 0 0.0 0.0 0.00 0.00 0.00 84 1003.1
20260508104510 5 0 0.0 0.0 0.00 0.00 0.00 84 1003.1
20260508104010 5 0 0.0 0.0 0.00 0.00 0.00 83 1003.1
20260508103510 5 0 0.0 0.0 0.00 0.00 0.00 83 1003.0
20260508103010 5 0 0.0 0.0 0.00 0.00 0.00 83 1002.9
20260508102510 5 0 0.0 0.0 0.00 0.00 0.00 83 1002.9
20260508102010 5 0 0.0 0.0 0.00 0.00 0.00 82 1002.9
20260508101510 5 0 0.0 0.0 0.00 0.00 0.00 82 1002.9
20260508100513 5 0 0.0 0.0 0.00 0.00 0.00 82 1002.9
20260508100010 5 0 0.0 0.0 0.00 0.00 0.00 81 1002.9
20260508095510 5 0 0.0 0.0 0.00 0.00 0.00 81 1002.9
20260508095010 5 0 0.0 0.0 0.00 0.00 0.00 81 1002.9
20260508094510 5 0 0.0 0.0 0.00 0.00 0.00 81 1003.0
20260508094010 5 0 0.0 0.0 0.00 0.00 0.00 81 1003.0
20260508093510 5 0 0.0 0.0 0.00 0.00 0.00 81 1003.0
20260508093010 5 0 0.0 0.0 0.00 0.00 0.00 81 1003.0
20260508092510 5 0 0.0 0.0 0.00 0.00 0.00 81 1003.0
20260508092010 5 0 0.0 0.0 0.00 0.00 0.00 81 1002.9
20260508091510 5 0 0.0 0.0 0.00 0.00 0.00 81 1003.0
20260508091010 5 0 0.0 0.0 0.00 0.00 0.00 81 1003.1
20260508090541 5 0 0.0 0.0 0.00 0.00 0.00 81 1003.0
20260508090010 6 0 0.0 0.0 0.00 0.00 0.00 81 1003.1
20260508085510 6 0 0.0 0.0 0.00 0.00 0.00 80 1003.1
20260508085010 6 0 0.0 0.0 0.00 0.00 0.00 81 1003.0
20260508084510 6 0 0.0 0.0 0.00 0.00 0.00 80 1002.9
20260508084010 6 0 0.0 0.0 0.00 0.00 0.00 80 1002.9
20260508083510 6 0 0.0 0.0 0.00 0.00 0.00 80 1002.9
20260508083010 6 0 0.0 0.0 0.00 0.00 0.00 80 1003.0
20260508082510 6 0 0.0 0.0 0.00 0.00 0.00 80 1003.1
20260508082010 6 0 0.0 0.0 0.00 0.00 0.00 80 1003.1
20260508081510 6 0 0.0 0.0 0.00 0.00 0.00 80 1003.1
20260508081010 6 0 0.0 0.0 0.00 0.00 0.00 79 1003.2
20260508080510 6 0 0.0 0.0 0.00 0.00 0.00 79 1003.2
20260508080010 6 0 0.0 0.0 0.00 0.00 0.00 79 1003.1
20260508075510 6 0 0.0 1.6 0.00 0.00 0.00 79 1003.2
20260508075010 6 0 0.0 1.6 0.00 0.00 0.00 78 1003.2
20260508074510 6 0 0.0 0.0 0.00 0.00 0.00 78 1003.2
20260508074010 6 0 0.0 1.6 0.00 0.00 0.00 78 1003.2
20260508073510 6 0 0.0 1.6 0.00 0.00 0.00 78 1003.1
20260508073010 6 0 0.0 0.0 0.00 0.00 0.00 78 1003.3
20260508072510 6 0 0.0 0.0 0.00 0.00 0.00 78 1003.4
20260508071943 6 0 0.0 0.0 0.00 0.00 0.00 78 1003.5
20260508071404 6 0 0.0 0.0 0.00 0.00 0.00 78 1003.5
20260508065903 6 0 0.0 0.0 0.00 0.00 0.00 77 1003.5
20260508065403 6 0 0.0 0.0 0.00 0.00 0.00 77 1003.5
20260508064903 6 0 0.0 0.0 0.00 0.00 0.00 77 1003.5
20260508064403 6 0 0.0 0.0 0.00 0.00 0.00 77 1003.5
20260508063903 6 0 0.0 0.0 0.00 0.00 0.00 77 1003.4
20260508063240 6 0 0.0 0.0 0.00 0.00 0.00 77 1003.5
20260508062740 6 0 0.0 0.0 0.00 0.00 0.00 76 1003.4
20260508062242 6 0 0.0 0.0 0.00 0.00 0.00 76 1003.4
20260508061740 6 0 0.0 0.0 0.00 0.00 0.00 76 1003.5
20260508061240 6 0 0.0 0.0 0.00 0.00 0.00 76 1003.5
20260508060740 6 0 0.0 0.0 0.00 0.00 0.00 76 1003.6
20260508060240 6 0 0.0 0.0 0.00 0.00 0.00 76 1003.5
20260508055241 6 0 0.0 1.6 0.00 0.00 0.00 76 1003.6
20260508054740 6 0 0.0 1.6 0.00 0.00 0.00 76 1003.6
20260508054240 6 0 0.0 0.0 0.00 0.00 0.00 75 1003.7
20260508053741 6 0 0.0 0.0 0.00 0.00 0.00 75 1003.7
20260508053240 6 0 0.0 0.0 0.00 0.00 0.00 75 1003.6
20260508052740 6 0 0.0 0.0 0.00 0.00 0.00 75 1003.6
20260508052241 6 0 0.0 0.0 0.00 0.00 0.00 75 1003.5
20260508051740 6 0 0.0 0.0 0.00 0.00 0.00 74 1003.6
20260508051240 6 0 0.0 0.0 0.00 0.00 0.00 74 1003.6
20260508050740 6 0 0.0 0.0 0.00 0.00 0.00 74 1003.6
20260508050240 7 0 0.0 0.0 0.00 0.00 0.00 74 1003.6
20260508045742 7 0 0.0 0.0 0.00 0.00 0.00 74 1003.5
20260508045241 7 0 0.0 1.6 0.00 0.00 0.00 73 1003.6
20260508044240 7 0 0.0 0.0 0.00 0.00 0.00 73 1003.5
20260508043741 7 0 0.0 0.0 0.00 0.00 0.00 72 1003.5
20260508043240 7 0 0.0 0.0 0.00 0.00 0.00 72 1003.6
20260508042740 7 0 0.0 0.0 0.00 0.00 0.00 71 1003.5
20260508042240 7 0 0.0 0.0 0.00 0.00 0.00 71 1003.5
20260508041740 7 0 0.0 1.6 0.00 0.00 0.00 71 1003.6
20260508041240 7 0 0.0 1.6 0.00 0.00 0.00 71 1003.6
20260508040740 7 0 0.0 0.0 0.00 0.00 0.00 70 1003.5
20260508040240 8 0 0.0 0.0 0.00 0.00 0.00 70 1003.5
20260508035740 8 0 0.0 0.0 0.00 0.00 0.00 69 1003.5
20260508035240 8 0 0.0 0.0 0.00 0.00 0.00 68 1003.5
20260508034740 8 0 0.0 1.6 0.00 0.00 0.00 68 1003.5
20260508034240 8 0 0.0 1.6 0.00 0.00 0.00 68 1003.5
20260508033740 8 0 0.0 1.6 0.00 0.00 0.00 67 1003.5
20260508033240 8 0 0.0 0.0 0.00 0.00 0.00 67 1003.5
20260508032740 8 0 0.0 0.0 0.00 0.00 0.00 66 1003.4
20260508032059 8 0 0.0 0.0 0.00 0.00 0.00 66 1003.6
20260508031559 8 0 0.0 0.0 0.00 0.00 0.00 66 1003.5
20260508031059 8 0 0.0 0.0 0.00 0.00 0.00 65 1003.6
20260508030559 8 0 0.0 0.0 0.00 0.00 0.00 65 1003.6
20260508030059 8 0 0.0 1.6 0.00 0.00 0.00 65 1003.6
20260508025559 8 0 0.0 1.6 0.00 0.00 0.00 64 1003.8
20260508025059 8 0 0.0 0.0 0.00 0.00 0.00 63 1003.8
20260508024559 8 0 0.0 0.0 0.00 0.00 0.00 63 1003.8
20260508024059 8 0 0.0 0.0 0.00 0.00 0.00 63 1003.7
20260508023524 9 0 0.0 0.0 0.00 0.00 0.00 62 1003.9
20260508022912 9 0 0.0 0.0 0.00 0.00 0.00 61 1003.8
20260508022353 9 0 0.0 0.0 0.00 0.00 0.00 61 1003.7
20260508021540 9 0 0.0 0.0 0.00 0.00 0.00 61 1003.7
20260508021040 9 0 0.0 0.0 0.00 0.00 0.00 61 1003.7
20260508020355 9 0 0.0 0.0 0.00 0.00 0.00 62 1003.6
20260508015855 9 0 0.0 0.0 0.00 0.00 0.00 62 1003.5
20260508015355 9 0 0.0 0.0 0.00 0.00 0.00 61 1003.6
20260508014855 10 0 0.0 0.0 0.00 0.00 0.00 60 1003.7
20260508014355 10 0 0.0 3.2 0.00 0.00 0.00 60 1003.7
20260508013856 10 0 0.0 3.2 0.00 0.00 0.00 60 1003.7
20260508013355 10 0 0.0 3.2 0.00 0.00 0.00 58 1003.8
20260508012855 10 0 0.0 3.2 0.00 0.00 0.00 55 1003.7
20260508012355 10 0 0.0 3.2 0.00 0.00 0.00 54 1003.6
20260508011855 10 0 0.0 1.6 0.00 0.00 0.00 52 1003.6
20260508011355 10 0 0.0 0.0 0.00 0.00 0.00 52 1003.4
20260508010814 10 0 0.0 8.0 0.00 0.00 0.00 50 1003.2
20260508005735 10 0 0.0 0.0 0.00 0.00 0.00 50 1003.1
20260508005235 11 0 0.0 0.0 0.00 0.00 0.00 50 1003.1
20260508004735 11 0 0.0 0.0 0.00 0.00 0.00 50 1003.0
20260508004235 11 0 0.0 0.0 0.00 0.00 0.00 49 1003.0
20260508003735 11 0 0.0 0.0 0.00 0.00 0.00 49 1003.0